When you browse on this site, cookies collect data to enhance your experience and personalize the content and advertising you see.
Visit our Privacy Policy to learn more. By continuing to use the site, you agree to this use of cookies and data.
  • In United Kingdom
  • List of Countries
  • For 7 days
  • Water Temperature
  • Weather Map
  • Weather Widgets
  • user-avatar
    Login

    Hourly Weather Piraeus

    Today, 13 December, Friday

    Time Temperature Precipitation Wind Pressure Humidity
    00:00 +11°C° 0 mm 0 mps 751 mmHg 82%
    01:00 +12°C° 0 mm 1 mps 750 mmHg 82%
    02:00 +12°C° 0 mm 1 mps 750 mmHg 83%
    03:00 +12°C° 0 mm 1 mps 750 mmHg 84%
    04:00 +12°C° 0 mm 1 mps 750 mmHg 84%
    05:00 +11°C° 0 mm 0 mps 750 mmHg 84%
    06:00 +12°C° 0 mm 1 mps 750 mmHg 85%
    07:00 +12°C° 0 mm 1 mps 750 mmHg 85%
    08:00 +12°C° 0 mm 1 mps 750 mmHg 86%
    09:00 +13°C° 0 mm 1 mps 750 mmHg 81%
    10:00 +14°C° 0 mm 1 mps 750 mmHg 76%
    11:00 +15°C° 0 mm 1 mps 750 mmHg 71%
    12:00 +16°C° 0 mm 2 mps 750 mmHg 67%
    13:00 +16°C° 0 mm 2 mps 749 mmHg 64%
    14:00 +16°C° 0 mm 2 mps 749 mmHg 60%
    15:00 +16°C° 0 mm 2 mps 749 mmHg 61%
    16:00 +15°C° 0 mm 2 mps 749 mmHg 63%
    17:00 +15°C° 0 mm 2 mps 748 mmHg 65%
    18:00 +14°C° 0 mm 3 mps 748 mmHg 67%
    19:00 +13°C° 0 mm 4 mps 749 mmHg 68%
    20:00 +13°C° 0 mm 4 mps 749 mmHg 70%
    21:00 +13°C° 0 mm 4 mps 749 mmHg 70%
    22:00 +13°C° 0 mm 4 mps 748 mmHg 71%
    23:00 +13°C° 0 mm 4 mps 748 mmHg 71%

    Tomorrow, 14 December, Saturday

    Time Temperature Precipitation Wind Pressure Humidity
    00:00 +13°C° 0 mm 5 mps 748 mmHg 70%
    01:00 +13°C° 0 mm 5 mps 747 mmHg 70%
    02:00 +14°C° 0 mm 6 mps 747 mmHg 69%
    03:00 +14°C° 0 mm 7 mps 746 mmHg 70%
    04:00 +13°C° 0 mm 8 mps 745 mmHg 72%
    05:00 +13°C° 0 mm 10 mps 744 mmHg 73%
    06:00 +13°C° 0.5 mm 10 mps 743 mmHg 76%
    07:00 +13°C° 0.5 mm 11 mps 743 mmHg 78%
    08:00 +14°C° 0.5 mm 12 mps 742 mmHg 81%
    09:00 +13°C° 2.7 mm 11 mps 742 mmHg 83%
    10:00 +13°C° 2.7 mm 10 mps 742 mmHg 85%
    11:00 +13°C° 2.7 mm 8 mps 741 mmHg 87%
    12:00 +14°C° 0.9 mm 7 mps 741 mmHg 84%
    13:00 +14°C° 0.9 mm 6 mps 741 mmHg 81%
    14:00 +14°C° 0.9 mm 4 mps 741 mmHg 77%
    15:00 +13°C° 0.4 mm 5 mps 742 mmHg 78%
    16:00 +13°C° 0.4 mm 5 mps 742 mmHg 79%
    17:00 +13°C° 0.4 mm 5 mps 743 mmHg 80%
    18:00 +12°C° 0.1 mm 5 mps 744 mmHg 81%
    19:00 +12°C° 0.1 mm 5 mps 745 mmHg 82%
    20:00 +12°C° 0.1 mm 5 mps 746 mmHg 83%
    21:00 +12°C° 0.1 mm 5 mps 748 mmHg 84%
    22:00 +12°C° 0.1 mm 5 mps 749 mmHg 84%
    23:00 +13°C° 0.1 mm 6 mps 750 mmHg 85%

    Day after tomorrow, 15 December, Sunday

    Time Temperature Precipitation Wind Pressure Humidity
    00:00 +13°C° 0.1 mm 5 mps 751 mmHg 86%
    01:00 +13°C° 0.1 mm 5 mps 752 mmHg 87%
    02:00 +13°C° 0.1 mm 4 mps 753 mmHg 88%
    03:00 +13°C° 0 mm 4 mps 754 mmHg 88%
    04:00 +13°C° 0 mm 4 mps 754 mmHg 89%
    05:00 +13°C° 0 mm 4 mps 755 mmHg 89%
    06:00 +13°C° 0 mm 4 mps 756 mmHg 89%
    07:00 +13°C° 0 mm 3 mps 757 mmHg 89%
    08:00 +13°C° 0 mm 3 mps 758 mmHg 89%
    09:00 +14°C° 0 mm 3 mps 759 mmHg 85%
    10:00 +16°C° 0 mm 3 mps 760 mmHg 81%
    11:00 +17°C° 0 mm 3 mps 761 mmHg 77%
    12:00 +17°C° 0 mm 3 mps 761 mmHg 74%
    13:00 +18°C° 0 mm 3 mps 761 mmHg 72%
    14:00 +18°C° 0 mm 3 mps 761 mmHg 69%
    15:00 +17°C° 0 mm 2 mps 762 mmHg 72%
    16:00 +17°C° 0 mm 2 mps 762 mmHg 75%
    17:00 +16°C° 0 mm 2 mps 763 mmHg 78%
    18:00 +16°C° 0 mm 1 mps 763 mmHg 79%
    19:00 +15°C° 0 mm 1 mps 764 mmHg 81%
    20:00 +15°C° 0 mm 1 mps 764 mmHg 83%
    21:00 +15°C° 0 mm 1 mps 764 mmHg 83%
    22:00 +14°C° 0 mm 1 mps 765 mmHg 83%
    23:00 +13°C° 0 mm 0 mps 765 mmHg 83%

    16 December, Monday

    Time Temperature Precipitation Wind Pressure Humidity
    00:00 +13°C° 0 mm 0 mps 765 mmHg 83%
    01:00 +13°C° 0 mm 0 mps 765 mmHg 83%
    02:00 +13°C° 0 mm 0 mps 765 mmHg 83%
    03:00 +12°C° 0 mm 0 mps 765 mmHg 83%
    04:00 +12°C° 0 mm 0 mps 765 mmHg 84%
    05:00 +12°C° 0 mm 0 mps 765 mmHg 84%
    06:00 +12°C° 0 mm 0 mps 765 mmHg 84%
    07:00 +12°C° 0 mm 0 mps 766 mmHg 85%
    08:00 +12°C° 0 mm 0 mps 766 mmHg 85%
    09:00 +13°C° 0 mm 0 mps 766 mmHg 80%
    10:00 +15°C° 0 mm 0 mps 766 mmHg 76%
    11:00 +16°C° 0 mm 0 mps 767 mmHg 72%
    12:00 +16°C° 0 mm 0 mps 766 mmHg 70%
    13:00 +19°C° 0 mm 1 mps 766 mmHg 68%
    14:00 +19°C° 0 mm 1 mps 766 mmHg 66%
    15:00 +19°C° 0 mm 1 mps 766 mmHg 69%
    16:00 +16°C° 0 mm 0 mps 766 mmHg 73%
    17:00 +15°C° 0 mm 0 mps 766 mmHg 77%
    18:00 +15°C° 0 mm 0 mps 766 mmHg 78%
    19:00 +14°C° 0 mm 0 mps 766 mmHg 80%
    20:00 +14°C° 0 mm 0 mps 766 mmHg 81%
    21:00 +14°C° 0 mm 0 mps 766 mmHg 82%
    22:00 +13°C° 0 mm 0 mps 766 mmHg 82%
    23:00 +13°C° 0 mm 0 mps 766 mmHg 83%

    17 December, Tuesday

    Time Temperature Precipitation Wind Pressure Humidity
    00:00 +14°C° 0 mm 1 mps 766 mmHg 83%
    01:00 +14°C° 0 mm 1 mps 766 mmHg 83%
    02:00 +14°C° 0 mm 1 mps 765 mmHg 84%
    03:00 +13°C° 0 mm 1 mps 765 mmHg 84%
    04:00 +13°C° 0 mm 1 mps 765 mmHg 84%
    05:00 +13°C° 0 mm 1 mps 765 mmHg 84%
    06:00 +13°C° 0 mm 1 mps 765 mmHg 84%
    07:00 +13°C° 0 mm 1 mps 766 mmHg 84%
    08:00 +13°C° 0 mm 1 mps 766 mmHg 84%
    09:00 +14°C° 0 mm 1 mps 766 mmHg 79%
    10:00 +16°C° 0 mm 1 mps 766 mmHg 75%
    11:00 +18°C° 0 mm 1 mps 766 mmHg 70%
    12:00 +18°C° 0 mm 1 mps 766 mmHg 68%
    13:00 +19°C° 0 mm 1 mps 765 mmHg 67%
    14:00 +19°C° 0 mm 1 mps 765 mmHg 66%
    15:00 +18°C° 0 mm 1 mps 765 mmHg 69%
    16:00 +18°C° 0 mm 1 mps 765 mmHg 73%
    17:00 +16°C° 0 mm 1 mps 765 mmHg 77%
    18:00 +15°C° 0 mm 0 mps 765 mmHg 78%
    19:00 +14°C° 0 mm 0 mps 765 mmHg 80%
    20:00 +14°C° 0 mm 0 mps 765 mmHg 81%
    21:00 +13°C° 0 mm 0 mps 766 mmHg 82%
    22:00 +13°C° 0 mm 0 mps 766 mmHg 82%
    23:00 +13°C° 0 mm 0 mps 766 mmHg 83%

    18 December, Wednesday

    Time Temperature Precipitation Wind Pressure Humidity
    00:00 +13°C° 0 mm 0 mps 766 mmHg 83%
    01:00 +12°C° 0 mm 0 mps 765 mmHg 84%
    02:00 +12°C° 0 mm 0 mps 765 mmHg 84%
    03:00 +12°C° 0 mm 0 mps 765 mmHg 84%
    04:00 +12°C° 0 mm 0 mps 765 mmHg 84%
    05:00 +12°C° 0 mm 0 mps 765 mmHg 84%
    06:00 +12°C° 0 mm 0 mps 765 mmHg 85%
    07:00 +12°C° 0 mm 0 mps 765 mmHg 85%
    08:00 +13°C° 0 mm 1 mps 766 mmHg 85%
    09:00 +14°C° 0 mm 1 mps 766 mmHg 82%
    10:00 +15°C° 0 mm 1 mps 766 mmHg 78%
    11:00 +18°C° 0 mm 1 mps 766 mmHg 75%
    12:00 +17°C° 0 mm 2 mps 766 mmHg 73%
    13:00 +18°C° 0 mm 2 mps 765 mmHg 71%
    14:00 +18°C° 0 mm 2 mps 765 mmHg 69%
    15:00 +17°C° 0 mm 2 mps 765 mmHg 73%
    16:00 +17°C° 0 mm 2 mps 765 mmHg 77%
    17:00 +16°C° 0 mm 2 mps 765 mmHg 81%
    18:00 +16°C° 0 mm 2 mps 765 mmHg 83%
    19:00 +15°C° 0 mm 2 mps 765 mmHg 84%
    20:00 +15°C° 0 mm 2 mps 765 mmHg 86%
    21:00 +15°C° 0 mm 2 mps 765 mmHg 86%
    22:00 +15°C° 0 mm 2 mps 765 mmHg 86%
    23:00 +15°C° 0 mm 2 mps 765 mmHg 86%
    Show more